Weather in Hatta

United Arab Emirates     24°48′01″N   56°06′59″E
temp.,
°C
wind,
m/s
gust,
m/s
humid.,
%
clouds,
%
prec.,
mm/h
press.,
hPa
HPBL,
m
23 january, sat
sat2301:00+13e34850 0.0 101848
04:00+12e44810 0.0 101865
07:00+10ese45700 0.0 102077
10:00+17ese79410 0.0 1022593
13:00+21ese66260 0.0 1020907
16:00+20ese66270 0.0 1019718
19:00+13e44440 0.0 102055
22:00+12ese44480 0.0 102046
24 january, sun
sun2401:00+12e44460 0.0 101934
04:00+11ese34470 0.0 101826
07:00+10ese23460 0.0 102022
10:00+18ene01240 0.0 1021544
13:00+22wnw32160 0.0 10191087
16:00+22wnw43170 0.0 1017806
19:00+15nw34440 0.0 101925
22:00+12n12470 0.0 101923
25 january, mon
mon2501:00+11n11430 0.0 101923
04:00+10n11570 0.0 101823
07:00+9ne11770 0.0 101923
10:00+19ne22280 0.0 1020484
13:00+25n33190 0.0 10191242
16:00+24nnw55260 0.0 10171075
19:00+16nnw235867 0.0 101823
22:00+12nw116733 0.0 101923
26 january, tue
tue2601:00+11wnw11734 0.0 101823
04:00+10wsw11874 0.0 101823
07:00+9sw11910 0.0 101823
10:00+18wnw33500 0.0 1020643
13:00+22wnw54320 0.0 10181161
16:00+23nw44250 0.0 10161309
19:00+15nnw23550 0.0 101723
22:00+12n11780 0.0 101823
27 january, wed
wed2701:00+11ene11810 0.0 101723
04:00+10ne11790 0.0 101623
07:00+9ene12750 0.0 101823
10:00+21ene34170 0.0 1019611
13:00+25ene54130 0.0 10171288
16:00+24ene54190 0.0 1016906
19:00+15e23450 0.0 101623
22:00+13e23590 0.0 101723